sat.trackr.live / text

‹ back to catalog

HAWK-2A

NORAD 47505 · 2021-006CW

PAYLOAD ACTIVE UNKNOWN

§ Identity

Operator
Country
US
Launch date
2021-01-24
Launch site
AFETR
Launch vehicle
Mass (kg)
RCS (m²)

Purposes: tech_demo

External: N2YO · Heavens-Above · Gunter

§ Orbital elements

Epoch: 2026-09-13T02:00:43.943616Z

Period
93.77 min
Inclination
97.2239°
Eccentricity
0.0004639
Mean motion
15.35653371 rev/d
Perigee alt
455.8 km
Apogee alt
462.2 km
Semi-major
6,837.1 km
B*
1.3897e-4
RAAN
299.3926°
Arg perigee
241.2021°
Mean anomaly
118.8757°
Rev number
31,298

§ Raw data

HAWK-2A1 47505U 21006CW  26256.08384194  .00004739  00000+0  13897-3 0  99912 47505  97.2239 299.3926 0004639 241.2021 118.8757 15.35653371312988

JSON: /api/v1/satellites/47505 · /tle

For live sub-satellite position, see the globe view (requires WebGL).

§ Visibility from observer

Set your observer location to see the next 7 days of passes ≥ 10°. The values pass through the URL so the page stays shareable.

No JS? Fill the form by hand. The geolocation button needs JavaScript.